| time (UTC) | temp C | wind direction | speed KPH | gust KPH | rain 1hr cm | rain 24hr cm | rain mn cm | humidity % | barometer mb |
| 20260504190038 | 26 | 278 | 16.1 | 20.9 | 0.00 | 0.00 | 0.00 | 31 | 1000.5 |
| 20260504185536 | 27 | 292 | 33.8 | 43.5 | 0.00 | 0.00 | 0.00 | 31 | 1000.8 |
| 20260504185032 | 27 | 208 | 17.7 | 22.5 | 0.00 | 0.00 | 0.00 | 31 | 1000.7 |
| 20260504184528 | 26 | 253 | 12.9 | 14.5 | 0.00 | 0.00 | 0.00 | 31 | 1000.6 |
| 20260504184023 | 26 | 285 | 25.7 | 32.2 | 0.00 | 0.00 | 0.00 | 32 | 1000.8 |
| 20260504183521 | 26 | 238 | 8.0 | 11.3 | 0.00 | 0.00 | 0.00 | 33 | 1000.8 |
| 20260504183019 | 26 | 273 | 32.2 | 40.2 | 0.00 | 0.00 | 0.00 | 32 | 1000.9 |
| 20260504182515 | 26 | 268 | 22.5 | 33.8 | 0.00 | 0.00 | 0.00 | 33 | 1000.7 |
| 20260504182013 | 26 | 199 | 17.7 | 22.5 | 0.00 | 0.00 | 0.00 | 33 | 1000.7 |
| 20260504181509 | 26 | 335 | 24.1 | 27.4 | 0.00 | 0.00 | 0.00 | 33 | 1000.9 |
| 20260504181008 | 27 | 258 | 17.7 | 24.1 | 0.00 | 0.00 | 0.00 | 33 | 1000.6 |
| 20260504180507 | 26 | 221 | 11.3 | 17.7 | 0.00 | 0.00 | 0.00 | 34 | 1000.7 |
| 20260504180005 | 26 | 266 | 17.7 | 25.7 | 0.00 | 0.00 | 0.00 | 32 | 1000.5 |
| 20260504175502 | 26 | 234 | 22.5 | 37.0 | 0.00 | 0.00 | 0.00 | 34 | 1000.4 |
| 20260504174959 | 26 | 284 | 24.1 | 35.4 | 0.00 | 0.00 | 0.00 | 33 | 1000.6 |
| 20260504174456 | 26 | 247 | 25.7 | 29.0 | 0.00 | 0.00 | 0.00 | 32 | 1000.6 |
| 20260504173953 | 26 | 253 | 29.0 | 43.5 | 0.00 | 0.00 | 0.00 | 33 | 1000.7 |
| 20260504173450 | 26 | 309 | 27.4 | 37.0 | 0.00 | 0.00 | 0.00 | 34 | 1000.6 |
| 20260504172947 | 26 | 316 | 35.4 | 38.6 | 0.00 | 0.00 | 0.00 | 33 | 1000.9 |
| 20260504172443 | 26 | 275 | 41.8 | 49.9 | 0.00 | 0.00 | 0.00 | 34 | 1000.6 |
| 20260504171940 | 26 | 273 | 12.9 | 16.1 | 0.00 | 0.00 | 0.00 | 34 | 1000.9 |
| 20260504171437 | 26 | 269 | 29.0 | 37.0 | 0.00 | 0.00 | 0.00 | 34 | 1000.5 |
| 20260504170934 | 26 | 310 | 19.3 | 24.1 | 0.00 | 0.00 | 0.00 | 34 | 1000.7 |
| 20260504170430 | 26 | 251 | 11.3 | 20.9 | 0.00 | 0.00 | 0.00 | 36 | 1000.8 |
| 20260504160349 | 22 | 248 | 12.9 | 22.5 | 0.00 | 0.00 | 0.00 | 48 | 1001.1 |
| 20260504150814 | 20 | 215 | 17.7 | 20.9 | 0.00 | 0.00 | 0.00 | 54 | 1001.5 |
| 20260504150311 | 20 | 249 | 11.3 | 12.9 | 0.00 | 0.00 | 0.00 | 54 | 1001.6 |
| 20260504141241 | 17 | 229 | 12.9 | 14.5 | 0.00 | 0.00 | 0.00 | 55 | 1002.2 |
| 20260504140737 | 17 | 248 | 11.3 | 11.3 | 0.00 | 0.00 | 0.00 | 56 | 1002.1 |
| 20260504140233 | 17 | 245 | 8.0 | 9.7 | 0.00 | 0.00 | 0.00 | 57 | 1002.0 |
| 20260504130702 | 14 | 232 | 6.4 | 9.7 | 0.00 | 0.00 | 0.00 | 61 | 1002.4 |
| 20260504130157 | 14 | 232 | 4.8 | 4.8 | 0.00 | 0.00 | 0.00 | 62 | 1002.4 |
| 20260504120122 | 12 | 232 | 1.6 | 3.2 | 0.00 | 0.00 | 0.00 | 66 | 1002.4 |
| 20260504110549 | 11 | 233 | 3.2 | 4.8 | 0.00 | 0.00 | 0.00 | 66 | 1002.6 |
| 20260504100511 | 11 | 232 | 4.8 | 4.8 | 0.00 | 0.00 | 0.00 | 64 | 1003.4 |
| 20260504081904 | 13 | 231 | 1.6 | 1.6 | 0.00 | 0.00 | 0.00 | 57 | 1004.3 |
| 20260504081401 | 13 | 241 | 1.6 | 1.6 | 0.00 | 0.00 | 0.00 | 56 | 1004.2 |
| 20260504080856 | 13 | 240 | 1.6 | 1.6 | 0.00 | 0.00 | 0.00 | 56 | 1004.5 |
| 20260504080354 | 13 | 240 | 1.6 | 1.6 | 0.00 | 0.00 | 0.00 | 56 | 1004.5 |
| 20260504070321 | 13 | 241 | 1.6 | 1.6 | 0.00 | 0.00 | 0.00 | 57 | 1005.6 |
| 20260504060241 | 15 | 232 | 3.2 | 4.8 | 0.00 | 0.00 | 0.00 | 47 | 1006.4 |
| 20260504050703 | 15 | 237 | 1.6 | 3.2 | 0.00 | 0.00 | 0.00 | 45 | 1006.6 |
| 20260504050200 | 15 | 236 | 0.0 | 0.0 | 0.00 | 0.00 | 0.00 | 47 | 1006.6 |
| 20260504045657 | 16 | 236 | 0.0 | 1.6 | 0.00 | 0.00 | 0.00 | 45 | 1006.7 |
| 20260504045152 | 16 | 236 | 3.2 | 3.2 | 0.00 | 0.00 | 0.00 | 44 | 1006.8 |
| 20260504044650 | 16 | 236 | 1.6 | 1.6 | 0.00 | 0.00 | 0.00 | 45 | 1006.8 |
| 20260504044147 | 16 | 235 | 1.6 | 1.6 | 0.00 | 0.00 | 0.00 | 44 | 1006.7 |
| 20260504043644 | 16 | 240 | 1.6 | 1.6 | 0.00 | 0.00 | 0.00 | 44 | 1006.7 |
| 20260504043141 | 16 | 241 | 0.0 | 1.6 | 0.00 | 0.00 | 0.00 | 44 | 1006.8 |
| 20260504042638 | 16 | 240 | 0.0 | 1.6 | 0.00 | 0.00 | 0.00 | 45 | 1007.1 |
| 20260504042135 | 16 | 240 | 1.6 | 1.6 | 0.00 | 0.00 | 0.00 | 44 | 1007.0 |
| 20260504041630 | 16 | 240 | 1.6 | 1.6 | 0.00 | 0.00 | 0.00 | 43 | 1007.1 |
| 20260504041127 | 16 | 240 | 1.6 | 1.6 | 0.00 | 0.00 | 0.00 | 43 | 1007.1 |
| 20260504040624 | 16 | 239 | 3.2 | 3.2 | 0.00 | 0.00 | 0.00 | 41 | 1007.3 |
| 20260504040121 | 16 | 240 | 1.6 | 1.6 | 0.00 | 0.00 | 0.00 | 41 | 1007.3 |
| 20260504035618 | 16 | 241 | 1.6 | 3.2 | 0.00 | 0.00 | 0.00 | 41 | 1007.5 |
| 20260504035114 | 17 | 239 | 1.6 | 1.6 | 0.00 | 0.00 | 0.00 | 41 | 1007.5 |
| 20260504034612 | 17 | 239 | 3.2 | 3.2 | 0.00 | 0.00 | 0.00 | 40 | 1007.4 |
| 20260504034109 | 17 | 242 | 3.2 | 3.2 | 0.00 | 0.00 | 0.00 | 39 | 1007.5 |
| 20260504033607 | 17 | 235 | 3.2 | 3.2 | 0.00 | 0.00 | 0.00 | 39 | 1007.4 |
| 20260504033104 | 17 | 245 | 3.2 | 3.2 | 0.00 | 0.00 | 0.00 | 38 | 1007.8 |
| 20260504032601 | 17 | 248 | 3.2 | 3.2 | 0.00 | 0.00 | 0.00 | 38 | 1007.7 |
| 20260504032058 | 17 | 245 | 3.2 | 3.2 | 0.00 | 0.00 | 0.00 | 38 | 1007.8 |
| 20260504031554 | 18 | 242 | 3.2 | 3.2 | 0.00 | 0.00 | 0.00 | 38 | 1007.9 |
| 20260504031050 | 18 | 243 | 3.2 | 3.2 | 0.00 | 0.00 | 0.00 | 37 | 1007.8 |
| 20260504030548 | 18 | 243 | 3.2 | 3.2 | 0.00 | 0.00 | 0.00 | 37 | 1008.0 |
| 20260504030044 | 18 | 251 | 4.8 | 4.8 | 0.00 | 0.00 | 0.00 | 37 | 1007.8 |
| 20260504025542 | 18 | 249 | 3.2 | 3.2 | 0.00 | 0.00 | 0.00 | 37 | 1007.9 |
| 20260504025038 | 18 | 259 | 3.2 | 3.2 | 0.00 | 0.00 | 0.00 | 36 | 1007.7 |
| 20260504024535 | 18 | 256 | 3.2 | 3.2 | 0.00 | 0.00 | 0.00 | 36 | 1007.9 |
| 20260504024032 | 18 | 266 | 1.6 | 3.2 | 0.00 | 0.00 | 0.00 | 36 | 1007.9 |
| 20260504023529 | 18 | 245 | 3.2 | 3.2 | 0.00 | 0.00 | 0.00 | 36 | 1007.9 |
| 20260504023024 | 18 | 238 | 3.2 | 3.2 | 0.00 | 0.00 | 0.00 | 36 | 1007.8 |
| 20260504022520 | 18 | 258 | 3.2 | 3.2 | 0.00 | 0.00 | 0.00 | 36 | 1007.9 |
| 20260504022017 | 18 | 246 | 3.2 | 3.2 | 0.00 | 0.00 | 0.00 | 36 | 1008.0 |
| 20260504021515 | 18 | 241 | 3.2 | 4.8 | 0.00 | 0.00 | 0.00 | 36 | 1007.6 |
| 20260504021012 | 19 | 247 | 1.6 | 3.2 | 0.00 | 0.00 | 0.00 | 36 | 1007.9 |
| 20260504020508 | 19 | 253 | 3.2 | 3.2 | 0.00 | 0.00 | 0.00 | 35 | 1007.7 |
| 20260504020005 | 19 | 252 | 1.6 | 3.2 | 0.00 | 0.00 | 0.00 | 35 | 1007.8 |
| 20260504015501 | 20 | 252 | 3.2 | 3.2 | 0.00 | 0.00 | 0.00 | 35 | 1007.7 |
| 20260504014957 | 20 | 256 | 1.6 | 1.6 | 0.00 | 0.00 | 0.00 | 35 | 1007.6 |
| 20260504014453 | 20 | 253 | 1.6 | 1.6 | 0.00 | 0.00 | 0.00 | 35 | 1007.7 |
| 20260504013950 | 20 | 250 | 3.2 | 3.2 | 0.00 | 0.00 | 0.00 | 34 | 1007.7 |
| 20260504013449 | 20 | 246 | 3.2 | 3.2 | 0.00 | 0.00 | 0.00 | 34 | 1007.7 |
| 20260504012944 | 20 | 240 | 3.2 | 3.2 | 0.00 | 0.00 | 0.00 | 33 | 1007.6 |
| 20260504012443 | 20 | 243 | 3.2 | 3.2 | 0.00 | 0.00 | 0.00 | 33 | 1007.7 |
| 20260504011940 | 20 | 246 | 3.2 | 3.2 | 0.00 | 0.00 | 0.00 | 33 | 1007.7 |
| 20260504011436 | 21 | 257 | 4.8 | 4.8 | 0.00 | 0.00 | 0.00 | 33 | 1007.5 |
| 20260504010932 | 21 | 247 | 3.2 | 3.2 | 0.00 | 0.00 | 0.00 | 32 | 1007.7 |
| 20260504010428 | 21 | 244 | 3.2 | 3.2 | 0.00 | 0.00 | 0.00 | 32 | 1007.4 |
| 20260504005925 | 21 | 249 | 1.6 | 1.6 | 0.00 | 0.00 | 0.00 | 31 | 1007.7 |
| 20260504005422 | 21 | 238 | 4.8 | 4.8 | 0.00 | 0.00 | 0.00 | 30 | 1007.6 |
| 20260504004919 | 22 | 265 | 4.8 | 4.8 | 0.00 | 0.00 | 0.00 | 30 | 1007.5 |
| 20260504004417 | 22 | 258 | 4.8 | 4.8 | 0.00 | 0.00 | 0.00 | 31 | 1007.5 |
| 20260504003914 | 22 | 251 | 9.7 | 11.3 | 0.00 | 0.00 | 0.00 | 30 | 1007.8 |
| 20260504003410 | 22 | 240 | 9.7 | 12.9 | 0.00 | 0.00 | 0.00 | 29 | 1007.6 |
| 20260504002907 | 23 | 270 | 6.4 | 8.0 | 0.00 | 0.00 | 0.00 | 27 | 1007.7 |
| 20260504002404 | 23 | 262 | 8.0 | 9.7 | 0.00 | 0.00 | 0.00 | 27 | 1007.6 |
| 20260504001901 | 23 | 262 | 11.3 | 12.9 | 0.00 | 0.00 | 0.00 | 26 | 1007.9 |
| 20260504001359 | 23 | 298 | 17.7 | 22.5 | 0.00 | 0.00 | 0.00 | 25 | 1007.6 |
| 20260504000855 | 23 | 265 | 6.4 | 8.0 | 0.00 | 0.00 | 0.00 | 26 | 1007.7 |
| 20260504000354 | 23 | 275 | 14.5 | 16.1 | 0.00 | 0.00 | 0.00 | 25 | 1007.8 |
| 20260503235849 | 23 | 252 | 16.1 | 16.1 | 0.00 | 0.00 | 0.00 | 26 | 1007.9 |
| 20260503235347 | 23 | 252 | 8.0 | 11.3 | 0.00 | 0.00 | 0.00 | 26 | 1007.7 |
| 20260503234844 | 23 | 259 | 6.4 | 8.0 | 0.00 | 0.00 | 0.00 | 26 | 1007.7 |
| 20260503234342 | 23 | 281 | 22.5 | 25.7 | 0.00 | 0.00 | 0.00 | 25 | 1007.8 |
| 20260503233839 | 23 | 247 | 6.4 | 8.0 | 0.00 | 0.00 | 0.00 | 25 | 1008.0 |
| 20260503233335 | 23 | 242 | 9.7 | 14.5 | 0.00 | 0.00 | 0.00 | 25 | 1007.7 |
| 20260503232832 | 23 | 260 | 16.1 | 17.7 | 0.00 | 0.00 | 0.00 | 24 | 1007.8 |
| 20260503232329 | 23 | 251 | 14.5 | 20.9 | 0.00 | 0.00 | 0.00 | 24 | 1007.6 |
| 20260503231827 | 23 | 274 | 11.3 | 14.5 | 0.00 | 0.00 | 0.00 | 24 | 1007.8 |
| 20260503231324 | 23 | 258 | 22.5 | 29.0 | 0.00 | 0.00 | 0.00 | 24 | 1007.9 |
| 20260503230820 | 23 | 263 | 14.5 | 17.7 | 0.00 | 0.00 | 0.00 | 24 | 1007.8 |
| 20260503230317 | 23 | 254 | 12.9 | 17.7 | 0.00 | 0.00 | 0.00 | 24 | 1007.9 |
| 20260503225815 | 23 | 305 | 11.3 | 17.7 | 0.00 | 0.00 | 0.00 | 24 | 1007.7 |
| 20260503225310 | 23 | 284 | 11.3 | 20.9 | 0.00 | 0.00 | 0.00 | 24 | 1008.0 |
| 20260503224807 | 23 | 337 | 19.3 | 22.5 | 0.00 | 0.00 | 0.00 | 25 | 1007.8 |
| 20260503224304 | 24 | 296 | 25.7 | 35.4 | 0.00 | 0.00 | 0.00 | 25 | 1007.9 |
| 20260503223802 | 23 | 247 | 14.5 | 22.5 | 0.00 | 0.00 | 0.00 | 26 | 1007.9 |
| 20260503223259 | 23 | 264 | 27.4 | 35.4 | 0.00 | 0.00 | 0.00 | 25 | 1007.7 |
| 20260503222755 | 24 | 257 | 19.3 | 27.4 | 0.00 | 0.00 | 0.00 | 26 | 1008.1 |
| 20260503222254 | 23 | 304 | 9.7 | 11.3 | 0.00 | 0.00 | 0.00 | 26 | 1007.9 |
| 20260503221751 | 23 | 276 | 4.8 | 4.8 | 0.00 | 0.00 | 0.00 | 26 | 1008.1 |
| 20260503221249 | 23 | 301 | 14.5 | 16.1 | 0.00 | 0.00 | 0.00 | 25 | 1007.8 |
| 20260503220745 | 23 | 289 | 11.3 | 14.5 | 0.00 | 0.00 | 0.00 | 25 | 1007.9 |
| 20260503220243 | 24 | 341 | 8.0 | 14.5 | 0.00 | 0.00 | 0.00 | 27 | 1008.2 |
| 20260503215739 | 23 | 5 | 20.9 | 27.4 | 0.00 | 0.00 | 0.00 | 25 | 1008.1 |
| 20260503215236 | 23 | 354 | 22.5 | 33.8 | 0.00 | 0.00 | 0.00 | 25 | 1008.0 |
| 20260503214734 | 23 | 351 | 3.2 | 4.8 | 0.00 | 0.00 | 0.00 | 27 | 1007.9 |
| 20260503214231 | 23 | 354 | 20.9 | 40.2 | 0.00 | 0.00 | 0.00 | 26 | 1008.3 |
| 20260503213729 | 23 | 288 | 25.7 | 32.2 | 0.00 | 0.00 | 0.00 | 26 | 1008.2 |
| 20260503213226 | 23 | 303 | 12.9 | 16.1 | 0.00 | 0.00 | 0.00 | 25 | 1007.9 |
| 20260503212723 | 23 | 2 | 17.7 | 25.7 | 0.00 | 0.00 | 0.00 | 25 | 1008.0 |
| 20260503212221 | 23 | 288 | 14.5 | 20.9 | 0.00 | 0.00 | 0.00 | 26 | 1008.2 |
| 20260503211718 | 23 | 308 | 14.5 | 16.1 | 0.00 | 0.00 | 0.00 | 28 | 1007.9 |
| 20260503211214 | 23 | 315 | 17.7 | 22.5 | 0.00 | 0.00 | 0.00 | 26 | 1008.2 |
| 20260503210709 | 23 | 287 | 17.7 | 25.7 | 0.00 | 0.00 | 0.00 | 27 | 1008.1 |
| 20260503210207 | 23 | 286 | 19.3 | 25.7 | 0.00 | 0.00 | 0.00 | 26 | 1008.2 |
| 20260503205703 | 23 | 326 | 19.3 | 24.1 | 0.00 | 0.00 | 0.00 | 26 | 1008.1 |
| 20260503205159 | 23 | 291 | 14.5 | 17.7 | 0.00 | 0.00 | 0.00 | 26 | 1008.1 |
| 20260503204655 | 23 | 298 | 14.5 | 20.9 | 0.00 | 0.00 | 0.00 | 27 | 1008.2 |
| 20260503204153 | 23 | 276 | 16.1 | 20.9 | 0.00 | 0.00 | 0.00 | 26 | 1008.3 |
| 20260503203649 | 24 | 285 | 12.9 | 14.5 | 0.00 | 0.00 | 0.00 | 27 | 1008.3 |
| 20260503203148 | 23 | 28 | 16.1 | 20.9 | 0.00 | 0.00 | 0.00 | 28 | 1008.2 |
| 20260503202644 | 23 | 334 | 19.3 | 22.5 | 0.00 | 0.00 | 0.00 | 28 | 1008.5 |
| 20260503202142 | 23 | 260 | 14.5 | 17.7 | 0.00 | 0.00 | 0.00 | 27 | 1008.5 |
| 20260503201640 | 23 | 295 | 16.1 | 17.7 | 0.00 | 0.00 | 0.00 | 27 | 1008.4 |
| 20260503201137 | 23 | 357 | 22.5 | 32.2 | 0.00 | 0.00 | 0.00 | 29 | 1008.6 |
| 20260503200633 | 23 | 349 | 17.7 | 22.5 | 0.00 | 0.00 | 0.00 | 28 | 1008.6 |
| 20260503200130 | 23 | 309 | 8.0 | 11.3 | 0.00 | 0.00 | 0.00 | 29 | 1008.5 |
| 20260503195627 | 23 | 269 | 16.1 | 20.9 | 0.00 | 0.00 | 0.00 | 29 | 1008.5 |
| 20260503195124 | 23 | 272 | 24.1 | 27.4 | 0.00 | 0.00 | 0.00 | 28 | 1008.6 |
| 20260503194621 | 23 | 314 | 16.1 | 16.1 | 0.00 | 0.00 | 0.00 | 29 | 1008.7 |
| 20260503194116 | 23 | 278 | 14.5 | 17.7 | 0.00 | 0.00 | 0.00 | 29 | 1008.7 |
| 20260503193613 | 23 | 335 | 16.1 | 20.9 | 0.00 | 0.00 | 0.00 | 29 | 1008.6 |
| 20260503193109 | 23 | 348 | 25.7 | 32.2 | 0.00 | 0.00 | 0.00 | 28 | 1008.6 |
| 20260503192604 | 23 | 277 | 8.0 | 9.7 | 0.00 | 0.00 | 0.00 | 29 | 1008.6 |
| 20260503192100 | 23 | 322 | 19.3 | 24.1 | 0.00 | 0.00 | 0.00 | 31 | 1008.7 |
| 20260503191557 | 23 | 290 | 11.3 | 16.1 | 0.00 | 0.00 | 0.00 | 31 | 1008.6 |
| 20260503191054 | 22 | 2 | 14.5 | 24.1 | 0.00 | 0.00 | 0.00 | 30 | 1008.7 |
| 20260503190550 | 22 | 312 | 11.3 | 16.1 | 0.00 | 0.00 | 0.00 | 31 | 1008.9 |